This demonstration page uses our WeatherBlox Daily Observations layout. Learn more.

Left ArrowRight Arrow

38.88101, -77.10428

Hourly Observations for April 19, 2021

Temp ( °F °C ) Dew Point ( °F °C ) Humidity (%) Winds ( mph kmh ) Pressure ( in mb ) Visibility ( mi km ) Precip ( " mm )
12:52 am 00:52 Mostly Cloudy 55 12.8 48 8.9 77 77 S 7 11 29.91 1013 10 16 N/A
1:52 am 01:52 Mostly Cloudy 54 12.2 46 7.8 75 75 S 7 11 29.89 1012 10 16 N/A
2:52 am 02:52 Mostly Cloudy 54 12.2 46 7.8 75 75 SSW 5 7 29.88 1012 10 16 N/A
3:52 am 03:52 Partly Cloudy 54 12.2 46 7.8 75 75 SW 3 6 29.87 1012 10 16 N/A
4:52 am 04:52 Mostly Cloudy 54 12.2 46 7.8 75 75 N N/A 29.87 1011 9 14 N/A
5:52 am 05:52 Mostly Cloudy 53 11.7 46 7.8 77 77 N N/A 29.86 1011 10 16 N/A
6:52 am 06:52 Cloudy 53 11.7 47 8.3 80 80 N N/A 29.88 1012 10 16 N/A
7:52 am 07:52 Cloudy 54 12.2 46 7.8 75 75 SSW 3 6 29.88 1012 10 16 N/A
8:52 am 08:52 Cloudy with Light Rain 55 12.8 48 8.9 77 77 S 9 15 29.88 1012 10 16 0.00 0.00
9:52 am 09:52 Cloudy 56 13.3 46 7.8 70 70 SW 7 11 29.89 1012 10 16 0.00 0.00
10:52 am 10:52 Cloudy 56 13.3 48 8.9 75 75 N N/A 29.90 1012 10 16 0.01 0.25
11:52 am 11:52 Cloudy 55 12.8 49 9.4 80 80 S 9 15 29.89 1012 10 16 0.00 0.00
12:52 pm 12:52 Mostly Cloudy 56 13.3 49 9.4 77 77 S 8 13 29.88 1012 10 16 N/A
1:52 pm 13:52 Mostly Cloudy 58 14.4 47 8.3 67 67 S 10 17 29.88 1012 10 16 N/A
2:52 pm 14:52 Mostly Cloudy 58 14.4 47 8.3 67 67 S 12 19 29.87 1012 10 16 N/A
3:52 pm 15:52 Partly Cloudy 60 15.6 46 7.8 60 60 S 9 15 29.84 1011 10 16 N/A
4:52 pm 16:52 Partly Cloudy 62 16.7 44 6.7 52 52 SSW 8 13 29.84 1011 10 16 N/A
5:52 pm 17:52 Mostly Sunny 62 16.7 45 7.2 54 54 S 8 13 29.85 1011 10 16 N/A
6:52 pm 18:52 Mostly Sunny 60 15.6 46 7.8 60 60 S 9 15 29.86 1011 10 16 N/A
7:52 pm 19:52 Mostly Clear 58 14.4 45 7.2 62 62 S 9 15 29.88 1012 10 16 N/A
8:52 pm 20:52 Clear 55 12.8 46 7.8 72 72 S 7 11 29.90 1013 10 16 N/A
9:46 pm 21:46 Mostly Clear 54 12 46 8 77 77 S 7 11 29.93 1014 10 16 N/A
9:52 pm 21:52 Mostly Clear 54 12.2 45 7.2 72 72 S 7 11 29.92 1013 10 16 N/A
10:52 pm 22:52 Clear 53 11.7 46 7.8 77 77 S 7 11 29.93 1014 10 16 N/A
11:52 pm 23:52 Clear 51 10.6 46 7.8 83 83 S 6 9 29.94 1014 10 16 N/A

Powered by AerisWeather